Regional Weather Roundup
Issued by NWS

Home | Current Version | Previous Version | Graphics & Text | Print | Product List | Glossary On
Versions: 1 2 3 4 5 6 7 8 9 10 11 12 13 14 15 16 17 18 19 20 21 22 23 24 25 26 27 28 29 30 31 32 33 34 35 36 37 38 39 40 41 42 43 44 45 46 47 48 49 50
000
ASUS43 KBIS 191310
RWRND

NORTH DAKOTA REGIONAL WEATHER ROUNDUP
NATIONAL WEATHER SERVICE BISMARCK ND
800 AM CDT SAT APR 19 2014

NOTE: "FAIR" INDICATES FEW OR NO CLOUDS BELOW 12,000 FEET WITH NO
SIGNIFICANT WEATHER AND/OR OBSTRUCTIONS TO VISIBILITY.


NDZ001>003-009>011-017-191400-
NORTHWEST NORTH DAKOTA

CITY           SKY/WX    TMP DP  RH WIND       PRES   REMARKS
WILLISTON      PTCLDY    40  34  79 W28G35    29.78R
MINOT          MOSUNNY   40  32  73 SW13      29.73R
MINOT AFB      MOSUNNY   39  35  87 SW18      29.72R
$$

NDZ018>021-031>035-040>046-191400-
SOUTHWEST NORTH DAKOTA

CITY           SKY/WX    TMP DP  RH WIND       PRES   REMARKS
BISMARCK       SUNNY     40  32  73 SW10      29.87R
DICKINSON      CLEAR     40  24  53 W17       29.83R
GARRISON         N/A     36  32  85 W13       29.79R
HETTINGER ARPT CLEAR     37  26  64 W13       29.93R
$$

NDZ004>008-012>016-024-026-027-054-191400-
NORTHEAST NORTH DAKOTA

CITY           SKY/WX    TMP DP  RH WIND       PRES   REMARKS
GRAND FORKS    MOSUNNY   44  37  76 S12       29.75R
GRND FRKS AFB  MOSUNNY   43  38  83 SW9       29.76R
DEVILS LAKE    SUNNY     37  30  75 SW9       29.74R
$$

NDZ022-023-025-028>030-036>039-047>053-191400-
SOUTHEAST NORTH DAKOTA

CITY           SKY/WX    TMP DP  RH WIND       PRES   REMARKS
FARGO          CLOUDY    49  39  68 S5        29.80R
JAMESTOWN      MOSUNNY   42  37  82 W13       29.80R
$$




USA.gov is the U.S. government's official web portal to all federal, state and local government web resources and services.